sat.trackr.live / text

‹ back to catalog

STARLINK-2475

NORAD 48133 · 2021-027AT

PAYLOAD ACTIVE UNKNOWN

§ Identity

Operator
Country
US
Launch date
2021-04-07
Launch site
AFETR
Launch vehicle
Mass (kg)
RCS (m²)

Purposes: comms

External: N2YO · Heavens-Above · Gunter

§ Orbital elements

Epoch: 2026-09-09T15:45:24.768288Z

Period
94.01 min
Inclination
53.1603°
Eccentricity
0.0001003
Mean motion
15.31723384 rev/d
Perigee alt
470.0 km
Apogee alt
471.4 km
Semi-major
6,848.8 km
B*
8.2729e-5
RAAN
29.2574°
Arg perigee
77.8461°
Mean anomaly
282.2653°
Rev number
30,070

§ Raw data

STARLINK-24751 48133U 21027AT  26252.65653667  .00002205  00000+0  82729-4 0  99922 48133  53.1603  29.2574 0001003  77.8461 282.2653 15.31723384300700

JSON: /api/v1/satellites/48133 · /tle

For live sub-satellite position, see the globe view (requires WebGL).

§ Visibility from observer

Set your observer location to see the next 7 days of passes ≥ 10°. The values pass through the URL so the page stays shareable.

No JS? Fill the form by hand. The geolocation button needs JavaScript.